Airfield :
LOGIN :

Register | Disclaimer

   EN    FR    IT 

 










Legend :    VFR   Marginal VFR   IFR   Intensive IFR   Very Intensive IFR
Visi :
Ceiling :
>= 8 km
>= 3000ft
5 to 8 km
1000 to 3000 ft
1500m to 5 km
500 to 1000 ft
800 to 1500m
200 to 500 ft
< 800m
< 200 ft
Symbols :   Thunderstorms  Fog  Heavy snow  Heavy precipitations  Wind > 20 kt
SIGMETs :     Misc.  Thunderstorms  Icing  Turbulence  Mountain Waves  Volcanic Ashes






- Airport Elevation : 648 ft
- IATA code : INI


LYNI - Nis Constantine

CURRENT METAR :
  • 240930Z 16004KT 070V230 CAVOK 15/05 Q1019 NOSIG

EXPIRED METARs :
  • 240900Z VRB03KT CAVOK 14/05 Q1019 NOSIG
  • 240830Z VRB02KT CAVOK 12/05 Q1020 NOSIG
  • 240800Z 14003KT 100V200 CAVOK 10/04 Q1020 NOSIG
  • 240730Z VRB02KT CAVOK 10/04 Q1020 NOSIG
  • 240700Z VRB02KT CAVOK 08/04 Q1020 NOSIG

TAF TAF LYNI
Valid from the 24 at 06:00 until the 25 at 06:00 UTC


240500Z 2406/2506 09004KT CAVOK TX24/2413Z TN05/2406Z
TEMPO 2410/2416 30011KT



MET'MAP, your aeronautical weather chart ! - Copyright ORBIFLY December 2007 - Disclaimer

ORBIFLY MET'MAP TEAM :

Programming & Development : Alexandra Zaïnal
Concept & original design : Baudouin d'Aumeries
Assistance for programming : Marc-Olivier Méhu
Technical & hardware support : Manuel Goepfert

Contact : metmap@orbifly.com




SOURCES & CREDITS :

   NOAA